Weather History for Fryeburg, ME

Change the Weather History Date:

Monday, November 18, 2013

  Actual Average Record
Temperature  
Mean Temperature 49 °F -  
Max Temperature 61 °F 42 °F 61 °F (2013)
Min Temperature 37 °F 23 °F 15 °F (2008)
Degree Days  
Heating Degree Days 16    
Moisture  
Dew Point 38 °F    
Average Humidity 82    
Maximum Humidity 100    
Minimum Humidity 39    
Precipitation  
Precipitation 0.54 in - - ()
Sea Level Pressure  
Sea Level Pressure 29.63 in    
Wind  
Wind Speed 2 mph (WSW)    
Max Wind Speed 14 mph    
Max Gust Speed 32 mph    
Visibility 5 miles    
Events Rain    
Averages and records for this station are not official NWS values.
T = Trace of Precipitation, MM = Missing Value Source: NWS Daily Summary

Daily Weather History Graph

Daily Weather History Graph

Search for Another Location

Airport:

Trip Planner

Search our weather history database for the weather conditions in past years. The results will help you decide how hot, cold, wet, or windy it might be!

Date:

Astronomy

Nov. 18, 2013 Rise Set
Actual Time 6:42 AM EST 4:14 PM EST
Civil Twilight 6:11 AM EST 4:46 PM EST
Nautical Twilight 5:36 AM EST 5:21 PM EST
Astronomical Twilight 5:02 AM EST 5:55 PM EST
Moon 5:14 PM EST (11/18) 7:29 AM EST (11/18)
Length of Visible Light 10h 34m
Length of Day
9h 31m
Full, 99% of the Moon is Illuminated
Nov 18
Full
Nov 25
Last Quarter
Dec 2
New
Dec 9
First Quarter
Dec 17
Full

Hourly Weather History & Observations

Time (EST) Temp. Windchill Dew Point Humidity Pressure Visibility Wind Dir Wind Speed Gust Speed Precip Events Conditions
12:02 AM 37.9 °F - 37.0 °F 97% 29.90 in 1.0 mi Calm Calm - 0.02 in Rain Light Rain
12:12 AM 37.9 °F - 37.0 °F 97% 29.89 in 1.2 mi Calm Calm - 0.03 in Rain Rain
12:24 AM 37.9 °F - 37.0 °F 97% 29.88 in 1.5 mi Calm Calm - 0.05 in Rain Light Rain
12:36 AM 37.9 °F - 37.0 °F 97% 29.87 in 1.2 mi Calm Calm - 0.06 in Rain Light Rain
12:47 AM 37.9 °F - 37.0 °F 97% 29.86 in 1.8 mi Calm Calm - 0.06 in Rain Light Rain
12:54 AM 37.9 °F - 37.0 °F 97% 29.87 in 1.8 mi Calm Calm - 0.07 in Rain Light Rain
1:01 AM 37.9 °F - 37.0 °F 97% 29.85 in 2.0 mi Calm Calm - 0.00 in Rain Light Rain
1:19 AM 37.9 °F - 37.0 °F 97% 29.83 in 1.5 mi Calm Calm - 0.00 in Rain Light Rain
1:29 AM 37.9 °F - 37.0 °F 97% 29.83 in 1.8 mi Calm Calm - 0.01 in Rain Light Rain
1:54 AM 37.9 °F - 37.0 °F 97% 29.82 in 1.2 mi Calm Calm - 0.03 in Rain Light Rain
2:11 AM 39.0 °F - 37.9 °F 96% 29.79 in 1.5 mi Calm Calm - 0.01 in Rain Light Rain
2:21 AM 39.0 °F - 37.0 °F 93% 29.78 in 1.0 mi Calm Calm - 0.02 in Rain Light Rain
2:54 AM 39.0 °F - 37.9 °F 96% 29.75 in 0.8 mi Calm Calm - 0.04 in Rain Light Rain
3:01 AM 39.0 °F - 37.9 °F 96% 29.73 in 1.0 mi Calm Calm - 0.00 in Rain Light Rain
3:29 AM 39.0 °F - 37.9 °F 96% 29.70 in 0.8 mi Calm Calm - 0.00 in   Mist
3:52 AM 39.2 °F - 37.4 °F 93% 29.67 in 1.0 mi Calm Calm - 0.01 in Rain Light Rain
3:54 AM 39.0 °F - 37.9 °F 96% 29.68 in 1.0 mi Calm Calm - 0.01 in Rain Light Rain
4:14 AM 39.0 °F - 37.9 °F 96% 29.66 in 1.5 mi Calm Calm - 0.02 in Rain Light Rain
4:18 AM 39.0 °F 36.8 °F 37.9 °F 96% 29.65 in 1.2 mi East 3.5 mph - 0.04 in Rain Heavy Rain
4:54 AM 39.9 °F - 39.0 °F 97% 29.62 in 1.0 mi Calm Calm - 0.05 in   Overcast
5:28 AM 39.0 °F - 39.0 °F 100% 29.56 in 1.0 mi Calm Calm - 0.01 in   Mist
5:54 AM 39.9 °F - 39.0 °F 97% 29.54 in 1.2 mi Calm Calm - 0.05 in Rain Rain
6:04 AM 39.9 °F - 37.9 °F 93% 29.52 in 1.0 mi Calm Calm - 0.02 in Rain Rain
6:20 AM 39.9 °F - 39.0 °F 97% 29.49 in 1.8 mi Calm Calm - 0.11 in Rain Heavy Rain
6:41 AM 41.0 °F 37.1 °F 39.9 °F 96% 29.48 in 3.0 mi WNW 5.8 mph - 0.17 in Rain Light Rain
6:54 AM 42.1 °F 39.2 °F 42.1 °F 100% 29.49 in 7.0 mi West 4.6 mph - 0.17 in Rain Light Rain
7:06 AM 43.0 °F 40.3 °F 42.1 °F 97% 29.47 in 5.0 mi NW 4.6 mph - 0.02 in Rain Light Rain
7:18 AM 46.0 °F 41.9 °F 44.1 °F 93% 29.51 in 1.8 mi WSW 8.1 mph 32.2 mph 0.09 in Rain Heavy Rain
7:24 AM 46.0 °F 43.1 °F 45.0 °F 96% 29.51 in 2.0 mi West 5.8 mph - 0.10 in Rain Light Rain
7:27 AM 46.0 °F 43.1 °F 45.0 °F 96% 29.50 in 4.0 mi Variable 5.8 mph - 0.10 in Rain Light Rain
7:54 AM 51.1 °F - 48.9 °F 92% 29.49 in 10.0 mi Calm Calm - 0.11 in   Overcast
8:54 AM 54.0 °F - 46.9 °F 77% 29.46 in 10.0 mi WSW 10.4 mph 20.7 mph 0.00 in Rain Light Rain
9:54 AM 57.0 °F - 46.0 °F 67% 29.49 in 10.0 mi SW 11.5 mph - 0.01 in   Scattered Clouds
10:54 AM 60.1 °F - 45.0 °F 57% 29.48 in 10.0 mi WSW 8.1 mph 21.9 mph N/A   Mostly Cloudy
11:54 AM 57.9 °F - 42.1 °F 56% 29.50 in 10.0 mi Variable 6.9 mph - N/A   Mostly Cloudy
12:54 PM 61.0 °F - 39.0 °F 44% 29.49 in 10.0 mi SW 13.8 mph 21.9 mph N/A   Partly Cloudy
1:54 PM 60.1 °F - 35.1 °F 39% 29.50 in 10.0 mi SW 10.4 mph - N/A   Clear
2:54 PM 59.0 °F - 35.1 °F 41% 29.52 in 10.0 mi Variable 4.6 mph - N/A   Clear
3:54 PM 57.0 °F - 36.0 °F 45% 29.53 in 10.0 mi SW 10.4 mph - N/A   Clear
4:54 PM 55.0 °F - 34.0 °F 45% 29.56 in 10.0 mi SW 5.8 mph - N/A   Clear
5:54 PM 46.9 °F - 34.0 °F 61% 29.57 in 10.0 mi WSW 3.5 mph - N/A   Clear
6:54 PM 39.0 °F 35.7 °F 34.0 °F 82% 29.57 in 10.0 mi West 4.6 mph - N/A   Clear
7:54 PM 45.0 °F 41.2 °F 32.0 °F 60% 29.57 in 10.0 mi WSW 6.9 mph - N/A   Mostly Cloudy
8:54 PM 48.9 °F - 30.9 °F 50% 29.56 in 10.0 mi West 6.9 mph - N/A   Mostly Cloudy
9:54 PM 48.9 °F - 28.9 °F 46% 29.55 in 10.0 mi West 11.5 mph 19.6 mph N/A   Clear
10:54 PM 46.9 °F - 27.0 °F 46% 29.57 in 10.0 mi West 8.1 mph - N/A   Clear
11:54 PM 46.0 °F 43.1 °F 27.0 °F 47% 29.58 in 10.0 mi West 5.8 mph 17.3 mph N/A   Clear